Terug naar catalogus

CZ-6A DEB

ActiefPO
NORAD 60962·DEBRIS·🇨🇳 China

Gelanceerd Aug 6, 2024 vanaf Taiyuan Satellite Launch Center

Loading…

Volgende Passages (komende 24 uur)

TLE

VersSource: Space-Track

Epoch: Sep 13, 2026, 17:49 UTC

1 60962U 24140LM  26256.74287185  .00000818  00000-0  35567-3 0  9993
2 60962  89.0162 266.2556 0041260 226.1039 133.6744 14.22771428107148

Volg CZ-6A DEB in realtime met AllMySat

Download on the App Store